This is the latest recevied weather packets stored in our database for station/object OK1JIL-13. If no packets are shown the sender has not sent any weather packets the latest 10 day(s).
| Time | Temp. | Humidity | Pressure | Rain* | Wind** | Luminosity | Snow |
|---|---|---|---|---|---|---|---|
| 1777359187 | 11.67° C | 32% | 1021.7 hPa | - | - | - | - |
| 1777358587 | 12.22° C | 31% | 1021.7 hPa | - | - | - | - |
| 1777357987 | 12.78° C | 29% | 1021.6 hPa | - | - | - | - |
| 1777357387 | 13.33° C | 29% | 1021.6 hPa | - | - | - | - |
| 1777356787 | 12.22° C | 29% | 1021.5 hPa | - | - | - | - |
| 1777356187 | 12.78° C | 29% | 1021.6 hPa | - | - | - | - |
| 1777355587 | 12.78° C | 27% | 1021.5 hPa | - | - | - | - |
| 1777354987 | 13.33° C | 25% | 1021.4 hPa | - | - | - | - |
| 1777354387 | 12.22° C | 27% | 1021.5 hPa | - | - | - | - |
| 1777353787 | 12.78° C | 30% | 1021.5 hPa | - | - | - | - |
| 1777353189 | 12.22° C | 28% | 1021.4 hPa | - | - | - | - |
| 1777352587 | 11.11° C | 28% | 1021.3 hPa | - | - | - | - |
| 1777351987 | 11.11° C | 29% | 1021.2 hPa | - | - | - | - |
| 1777351387 | 11.11° C | 29% | 1021.1 hPa | - | - | - | - |
| 1777350787 | 10.56° C | 31% | 1021.1 hPa | - | - | - | - |
| 1777350187 | 10° C | 31% | 1021 hPa | - | - | - | - |
| 1777349586 | 10° C | 31% | 1021 hPa | - | - | - | - |
| 1777348986 | 9.44° C | 33% | 1021 hPa | - | - | - | - |
| 1777348386 | 8.89° C | 33% | 1021.1 hPa | - | - | - | - |
| 1777347787 | 8.33° C | 34% | 1021.1 hPa | - | - | - | - |
| 1777347187 | 8.89° C | 33% | 1021.1 hPa | - | - | - | - |
| 1777346587 | 8.33° C | 34% | 1021.1 hPa | - | - | - | - |
| 1777345987 | 8.89° C | 33% | 1021 hPa | - | - | - | - |
| 1777345387 | 8.33° C | 34% | 1021 hPa | - | - | - | - |
| 1777344787 | 8.89° C | 33% | 1021.1 hPa | - | - | - | - |
* Rain since midnight (hover to see other rain measurements)
** Current wind speed in m/s (hover to see current wind gust speed)